Location: Cabeza de los Veneras
(40.2000°N, 5.2000°W)
Time: 12:01:04
(UTC+00:00)

CSL-04 Debris - Pass Details

Date: 18 April 2024
Orbit: 822 x 844 km, 98.8° (Epoch: 26 May)

Event Time Altitude Azimuth Distance (km) Brightness Sun altitude
Exits shadow 20:04:43 - 159° (SSE) 2,811 6.5 -11.8°
Reaches altitude 10° 20:05:40 10° 158° (SSE) 2,439 6.2 -12.0°
Maximum altitude 20:11:04 75° 74° (ENE) 870 4.1 -12.9°
Drops below altitude 10° 20:16:31 10° 350° (N) 2,468 7.2 -13.8°
Sets 20:18:54 0° 349° (N) 3,409 8.0 -14.2°
